FW4559 Weather Reports


time (UTC)temp
F
wind
direction
speed
knots
gust
knots
rain 1hr
in
rain 24hr
in
rain mn
in
humidity
%
barometer
mb
20260502130507 43 4 3.5 10.4 0.00 0.00 0.00 52 1013.1
20260502123503 43 319 2.6 9.6 0.00 0.00 0.00 59 1013.0
20260502123003 43 318 5.2 9.6 0.00 0.00 0.00 60 1012.8
20260502122502 43 6 3.5 8.7 0.00 0.00 0.00 62 1012.7
20260502122003 43 13 2.6 8.7 0.00 0.00 0.00 63 1012.8
20260502121508 43 338 4.3 8.7 0.00 0.00 0.00 64 1012.8
20260502121101 43 25 4.3 8.7 0.00 0.00 0.00 64 1012.7
20260502120600 43 337 2.6 7.0 0.00 0.00 0.00 67 1012.5
20260502120104 43 330 1.7 7.8 0.00 0.00 0.00 68 1012.5
20260502115559 43 32 1.7 6.1 0.00 0.00 0.00 68 1012.6
20260502115100 43 347 1.7 6.1 0.00 0.00 0.00 69 1012.6
20260502114558 43 354 2.6 7.0 0.00 0.00 0.00 70 1012.6
20260502114056 43 18 3.5 7.8 0.00 0.00 0.00 71 1012.5
20260502113557 43 23 4.3 7.8 0.00 0.00 0.00 72 1012.8
20260502113055 43 26 3.5 7.0 0.00 0.00 0.00 73 1012.7
20260502112554 43 20 1.7 7.8 0.00 0.00 0.00 74 1012.7
20260502112054 43 331 4.3 7.8 0.00 0.00 0.00 74 1012.7
20260502111605 43 329 2.6 5.2 0.00 0.00 0.00 75 1012.7
20260502111055 43 331 1.7 5.2 0.00 0.00 0.00 75 1012.7
20260502110553 43 342 1.7 6.1 0.00 0.00 0.00 76 1012.4
20260502110053 43 315 2.6 7.8 0.00 0.00 0.00 76 1012.5
20260502105553 43 4 3.5 7.8 0.00 0.00 0.00 77 1012.5
20260502105052 43 347 3.5 7.8 0.00 0.00 0.00 77 1012.4
20260502104553 43 6 3.5 7.8 0.00 0.00 0.00 78 1012.4
20260502104051 43 331 3.5 7.8 0.00 0.00 0.00 79 1012.2
20260502103549 43 355 1.7 4.3 0.00 0.00 0.00 80 1012.5
20260502103102 43 5 1.7 5.2 0.00 0.00 0.00 80 1012.5
20260502102549 43 333 1.7 7.0 0.00 0.00 0.00 79 1012.4
20260502102048 43 353 3.5 7.0 0.00 0.00 0.00 79 1012.3
20260502101558 43 352 1.7 7.0 0.00 0.00 0.00 79 1012.4
20260502101048 43 347 3.5 7.8 0.00 0.00 0.00 79 1012.3
20260502100546 43 2 3.5 7.0 0.00 0.00 0.00 79 1012.4
20260502091038 44 355 2.6 8.7 0.00 0.00 0.00 77 1013.1
20260502090540 44 335 2.6 8.7 0.00 0.00 0.00 77 1013.0
20260502071527 46 1 2.6 7.0 0.00 0.00 0.00 80 1012.2
20260502071021 46 348 2.6 7.0 0.00 0.00 0.00 80 1012.2
20260502070521 46 317 2.6 5.2 0.00 0.00 0.00 80 1012.3
20260502070025 46 332 2.6 4.3 0.00 0.00 0.00 80 1012.3
20260502065519 47 324 1.7 3.5 0.00 0.00 0.00 79 1012.3
20260502065022 47 13 0.9 3.5 0.00 0.00 0.00 79 1012.2
20260502064518 47 349 0.9 3.5 0.00 0.00 0.00 79 1012.2
20260502064017 47 359 0.9 5.2 0.00 0.00 0.00 79 1012.2
20260502063516 47 15 1.7 3.5 0.00 0.00 0.00 79 1012.4
20260502063025 47 326 0.0 1.7 0.00 0.00 0.00 79 1012.7
20260502062514 47 344 0.0 0.9 0.00 0.00 0.00 78 1012.8
20260502062013 47 345 0.0 3.5 0.00 0.00 0.00 77 1012.8
20260502061513 47 18 0.9 3.5 0.00 0.00 0.00 77 1012.9
20260502061012 47 326 0.9 4.3 0.00 0.00 0.00 77 1013.0
20260502060512 48 348 1.7 4.3 0.00 0.00 0.00 77 1013.1
20260502060018 48 327 1.7 4.3 0.00 0.00 0.00 77 1013.1
20260502055511 48 325 0.9 3.5 0.00 0.00 0.00 77 1013.1
20260502055011 48 9 1.7 3.5 0.00 0.00 0.00 77 1013.2
20260502054522 48 350 0.0 4.3 0.00 0.00 0.00 76 1013.3
20260502054010 48 338 1.7 4.3 0.00 0.00 0.00 76 1013.2
20260502053510 48 6 0.0 2.6 0.00 0.00 0.00 76 1013.4
20260502053009 48 1 0.0 2.6 0.00 0.00 0.00 75 1013.4
20260502052509 48 16 0.0 1.7 0.00 0.00 0.00 75 1013.4
20260502052010 48 16 0.9 1.7 0.00 0.00 0.00 75 1013.4
20260502051509 48 333 0.0 6.1 0.00 0.00 0.00 74 1013.2
20260502051008 48 9 1.7 6.1 0.00 0.00 0.00 74 1013.3
20260502050508 48 304 0.0 1.7 0.00 0.00 0.00 73 1013.4
20260502050009 48 323 0.0 2.6 0.00 0.00 0.00 73 1013.1
20260502045507 48 323 0.0 2.6 0.00 0.00 0.00 73 1013.2
20260502045007 48 338 0.0 2.6 0.00 0.00 0.00 72 1013.3
20260502044506 48 338 0.0 2.6 0.00 0.00 0.00 73 1013.2
20260502044005 47 359 0.0 3.5 0.00 0.00 0.00 73 1013.0
20260502043504 46 338 1.7 3.5 0.00 0.00 0.00 74 1013.1
20260502043003 47 203 0.0 0.9 0.00 0.00 0.00 73 1013.2
20260502042502 47 203 0.0 0.9 0.00 0.00 0.00 72 1013.1
20260502042003 48 345 0.0 3.5 0.00 0.00 0.00 70 1013.2
20260502041600 48 345 0.9 3.5 0.00 0.00 0.00 70 1013.2
20260502041059 48 345 0.0 0.9 0.00 0.00 0.00 70 1013.2
20260502040558 47 345 0.0 0.9 0.00 0.00 0.00 70 1013.1
20260502040057 47 345 0.0 2.6 0.00 0.00 0.00 70 1013.2
20260502035600 47 345 0.0 2.6 0.00 0.00 0.00 71 1013.2
20260502035057 47 65 0.0 1.7 0.00 0.00 0.00 71 1013.2
20260502034557 46 65 0.0 1.7 0.00 0.00 0.00 72 1013.3
20260502034057 46 3 0.0 1.7 0.00 0.00 0.00 73 1013.2
20260502033556 47 124 0.0 1.7 0.00 0.00 0.00 72 1013.2
20260502033057 47 108 0.0 2.6 0.00 0.00 0.00 72 1013.0
20260502032556 47 114 0.9 2.6 0.00 0.00 0.00 71 1013.0
20260502032056 47 110 0.0 0.9 0.00 0.00 0.00 69 1013.1
20260502031556 47 111 0.0 0.9 0.00 0.00 0.00 69 1013.2
20260502031056 47 111 0.0 0.9 0.00 0.00 0.00 68 1013.0
20260502030555 48 110 0.0 0.9 0.00 0.00 0.00 67 1013.2
20260502030056 48 110 0.0 0.0 0.00 0.00 0.00 66 1013.3
20260502025554 49 111 0.0 0.0 0.00 0.00 0.00 66 1013.3
20260502025058 49 111 0.0 0.0 0.00 0.00 0.00 64 1013.4
20260502024554 49 110 0.0 0.9 0.00 0.00 0.00 61 1013.5
20260502024054 50 111 0.0 0.9 0.00 0.00 0.00 62 1013.5
20260502023556 50 110 0.0 1.7 0.00 0.00 0.00 60 1013.4
20260502023056 50 111 0.0 1.7 0.00 0.00 0.00 60 1013.4
20260502022556 50 143 0.0 1.7 0.00 0.00 0.00 60 1013.2
20260502022054 50 115 0.0 1.7 0.00 0.00 0.00 60 1013.2
20260502021553 50 165 0.0 1.7 0.00 0.00 0.00 59 1013.3
20260502021053 50 162 0.0 1.7 0.00 0.00 0.00 59 1013.2
20260502020553 50 142 0.0 2.6 0.00 0.00 0.00 59 1013.2
20260502020053 50 124 0.9 4.3 0.00 0.00 0.00 59 1013.1
20260502015551 50 126 0.9 4.3 0.00 0.00 0.00 59 1012.9
20260502015052 50 195 0.0 2.6 0.00 0.00 0.00 59 1012.9
20260502014552 50 195 0.0 3.5 0.00 0.00 0.00 59 1012.9
20260502014051 50 162 0.0 1.7 0.00 0.00 0.00 59 1012.8
20260502013551 50 168 0.0 0.9 0.00 0.00 0.00 59 1012.5
20260502013054 50 168 0.0 0.9 0.00 0.00 0.00 58 1012.4
20260502012551 51 160 0.0 0.9 0.00 0.00 0.00 57 1012.5
20260502012052 51 235 0.0 1.7 0.00 0.00 0.00 56 1012.4
20260502011551 51 242 0.0 1.7 0.00 0.00 0.00 54 1012.4
20260502011051 52 226 0.0 1.7 0.00 0.00 0.00 52 1012.4
20260502010550 52 244 0.0 2.6 0.00 0.00 0.00 50 1012.3
20260502010053 53 269 0.0 3.5 0.00 0.00 0.00 49 1012.3
20260502005550 53 261 0.9 2.6 0.00 0.00 0.00 49 1012.5
20260502005050 53 274 0.9 2.6 0.00 0.00 0.00 48 1012.4
20260502004604 52 278 0.0 2.6 0.00 0.00 0.00 48 1012.3
20260502004050 52 246 0.0 1.7 0.00 0.00 0.00 48 1012.4
20260502003549 53 232 0.0 0.9 0.00 0.00 0.00 48 1012.3
20260502003050 53 232 0.0 0.0 0.00 0.00 0.00 47 1012.2
20260502002549 54 232 0.0 0.9 0.00 0.00 0.00 46 1011.9
20260502002049 54 232 0.0 0.9 0.00 0.00 0.00 45 1011.8
20260502001549 55 232 0.0 0.9 0.00 0.00 0.00 43 1011.6
20260502001049 55 232 0.0 1.7 0.00 0.00 0.00 43 1011.6
20260502000549 55 232 0.0 2.6 0.00 0.00 0.00 41 1011.6
20260502000058 56 271 0.0 2.6 0.00 0.00 0.00 41 1011.7
20260501235548 56 270 0.0 2.6 0.00 0.00 0.00 40 1011.4
20260501235148 56 257 0.0 6.1 0.00 0.00 0.00 39 1011.4
20260501234548 57 268 1.7 6.1 0.00 0.00 0.00 39 1011.5
20260501234048 57 244 0.0 2.6 0.00 0.00 0.00 38 1011.4
20260501233550 57 241 0.0 5.2 0.00 0.00 0.00 39 1011.4
20260501233048 57 307 1.7 5.2 0.00 0.00 0.00 38 1011.3
20260501232547 57 300 0.9 5.2 0.00 0.00 0.00 38 1011.2
20260501232047 58 223 0.9 2.6 0.00 0.00 0.00 39 1011.2
20260501231547 58 261 0.0 4.3 0.00 0.00 0.00 37 1011.3
20260501231047 58 262 1.7 5.2 0.00 0.00 0.00 37 1011.4
20260501230547 59 320 1.7 5.2 0.00 0.00 0.00 37 1011.2
20260501230046 59 6 0.9 6.1 0.00 0.00 0.00 36 1011.3
20260501225547 59 105 2.6 9.6 0.00 0.00 0.00 36 1011.3
20260501225048 60 256 2.6 9.6 0.00 0.00 0.00 39 1011.2
20260501224545 60 307 2.6 9.6 0.00 0.00 0.00 38 1011.2
20260501224044 61 210 0.0 6.1 0.00 0.00 0.00 54 1011.2
20260501223544 60 156 1.7 6.1 0.00 0.00 0.00 52 1011.2
20260501223044 60 280 0.0 4.3 0.00 0.00 0.00 52 1011.1
20260501222544 61 232 0.9 6.1 0.00 0.00 0.00 50 1011.2
20260501222045 61 179 1.7 6.1 0.00 0.00 0.00 49 1011.3
20260501221544 61 193 0.9 4.3 0.00 0.00 0.00 51 1011.1
20260501221047 61 213 0.9 4.3 0.00 0.00 0.00 51 1011.1
20260501220544 61 203 0.9 4.3 0.00 0.00 0.00 50 1011.1
20260501220050 61 207 0.9 5.2 0.00 0.00 0.00 49 1011.2
20260501215545 61 198 1.7 4.3 0.00 0.00 0.00 49 1011.2
20260501215043 61 202 0.9 6.1 0.00 0.00 0.00 51 1011.1
20260501214542 61 127 1.7 6.1 0.00 0.00 0.00 49 1011.3
20260501214041 61 189 1.7 7.0 0.00 0.00 0.00 50 1011.2
20260501213540 61 179 1.7 7.0 0.00 0.00 0.00 51 1011.3
20260501213059 60 198 2.6 7.0 0.00 0.00 0.00 52 1011.2
20260501212541 60 204 2.6 7.8 0.00 0.00 0.00 53 1011.3
20260501212042 60 153 4.3 7.8 0.00 0.00 0.00 52 1011.2
20260501211540 61 142 1.7 6.1 0.00 0.00 0.00 52 1011.3
20260501211039 60 157 2.6 6.1 0.00 0.00 0.00 53 1011.3
20260501210539 59 172 3.5 6.1 0.00 0.00 0.00 53 1011.2
20260501210038 59 202 2.6 9.6 0.00 0.00 0.00 53 1011.3
20260501205539 59 181 1.7 5.2 0.00 0.00 0.00 53 1011.4
20260501205042 59 183 0.9 5.2 0.00 0.00 0.00 55 1011.4
20260501204542 59 155 0.0 9.6 0.00 0.00 0.00 54 1011.4
20260501204040 58 186 2.6 9.6 0.00 0.00 0.00 53 1011.4
20260501203538 59 115 2.6 8.7 0.00 0.00 0.00 53 1011.4
20260501203037 59 160 3.5 8.7 0.00 0.00 0.00 53 1011.4
20260501202537 59 150 3.5 7.8 0.00 0.00 0.00 51 1011.4
20260501202041 59 160 4.3 7.8 0.00 0.00 0.00 51 1011.6
20260501201537 59 122 2.6 9.6 0.00 0.00 0.00 50 1011.4
20260501201039 60 138 4.3 9.6 0.00 0.00 0.00 48 1011.6
20260501200539 61 146 2.6 7.8 0.00 0.00 0.00 48 1011.7
20260501200036 61 204 3.5 7.8 0.00 0.00 0.00 48 1011.5
20260501195535 61 133 2.6 9.6 0.00 0.00 0.00 48 1011.7
20260501195034 61 138 4.3 9.6 0.00 0.00 0.00 47 1011.9
20260501194538 61 205 3.5 9.6 0.00 0.00 0.00 48 1011.9
20260501194032 60 95 4.3 9.6 0.00 0.00 0.00 51 1012.2
20260501193530 59 105 1.7 11.3 0.00 0.00 0.00 50 1012.2
20260501193030 59 149 6.1 12.2 0.00 0.00 0.00 48 1012.3
20260501192530 59 188 5.2 11.3 0.00 0.00 0.00 49 1012.4
20260501192030 59 147 6.1 9.6 0.00 0.00 0.00 48 1012.4
20260501191533 59 172 3.5 9.6 0.00 0.00 0.00 49 1012.5
20260501191029 59 170 4.3 9.6 0.00 0.00 0.00 48 1012.5
20260501190529 59 129 2.6 9.6 0.00 0.00 0.00 48 1012.6
20260501190028 60 213 4.3 9.6 0.00 0.00 0.00 48 1012.7
20260501185526 60 174 2.6 10.4 0.00 0.00 0.00 48 1012.7
20260501185027 60 136 3.5 10.4 0.00 0.00 0.00 47 1012.7
20260501184526 60 184 3.5 12.2 0.00 0.00 0.00 47 1012.8
20260501184026 60 125 4.3 13.0 0.00 0.00 0.00 48 1012.8
20260501183525 60 199 3.5 8.7 0.00 0.00 0.00 49 1012.9
20260501183025 60 172 3.5 12.2 0.00 0.00 0.00 48 1012.9
20260501182525 59 108 3.5 8.7 0.00 0.00 0.00 50 1012.9
20260501182021 58 118 4.3 9.6 0.00 0.00 0.00 52 1012.8
20260501181521 57 159 6.1 12.2 0.00 0.00 0.00 51 1012.8
20260501181021 58 172 5.2 11.3 0.00 0.00 0.00 51 1012.8
20260501180520 57 77 4.3 13.9 0.00 0.00 0.00 52 1012.9
20260501180025 57 152 5.2 13.0 0.00 0.00 0.00 52 1013.0
20260501175518 56 151 5.2 13.0 0.00 0.00 0.00 52 1013.2
20260501175018 56 145 6.1 12.2 0.00 0.00 0.00 51 1013.1
20260501174522 56 94 5.2 12.2 0.00 0.00 0.00 50 1013.2
20260501174017 56 137 6.1 12.2 0.00 0.00 0.00 51 1013.1
20260501173519 56 185 4.3 11.3 0.00 0.00 0.00 51 1013.3
20260501173017 55 182 3.5 11.3 0.00 0.00 0.00 51 1013.4
20260501172518 56 147 5.2 12.2 0.00 0.00 0.00 51 1013.5
20260501172017 56 127 5.2 10.4 0.00 0.00 0.00 49 1013.5
20260501171516 56 138 5.2 8.7 0.00 0.00 0.00 52 1013.7
20260501171017 56 78 4.3 8.7 0.00 0.00 0.00 51 1013.7
20260501170515 57 103 3.5 7.8 0.00 0.00 0.00 52 1013.8
20260501170014 56 153 2.6 7.8 0.00 0.00 0.00 50 1013.8
20260501165513 55 182 0.9 6.1 0.00 0.00 0.00 54 1014.0
20260501165013 55 184 3.5 7.0 0.00 0.00 0.00 50 1014.2
20260501164525 55 115 1.7 5.2 0.00 0.00 0.00 52 1014.1
20260501164011 55 206 1.7 6.1 0.00 0.00 0.00 52 1014.1
20260501163510 54 121 1.7 7.8 0.00 0.00 0.00 52 1014.3
20260501163011 54 134 1.7 9.6 0.00 0.00 0.00 52 1014.4
20260501162509 54 162 2.6 9.6 0.00 0.00 0.00 55 1014.5
20260501162008 54 141 2.6 6.1 0.00 0.00 0.00 53 1014.6
20260501161508 54 207 2.6 6.1 0.00 0.00 0.00 53 1014.6
20260501161008 54 157 3.5 6.1 0.00 0.00 0.00 54 1014.7
20260501160506 53 151 2.6 8.7 0.00 0.00 0.00 55 1014.7
20260501160007 53 135 3.5 8.7 0.00 0.00 0.00 55 1014.7
20260501155509 53 156 3.5 6.1 0.00 0.00 0.00 55 1014.7
20260501155006 53 136 3.5 7.0 0.00 0.00 0.00 56 1014.7
20260501154506 52 158 3.5 7.8 0.00 0.00 0.00 55 1014.9
20260501154005 52 126 2.6 7.0 0.00 0.00 0.00 56 1014.9
20260501153506 52 142 3.5 7.0 0.00 0.00 0.00 55 1015.0
20260501153005 53 125 2.6 7.8 0.00 0.00 0.00 53 1015.0
20260501152505 53 86 1.7 7.8 0.00 0.00 0.00 52 1014.8
20260501152004 53 164 2.6 6.1 0.00 0.00 0.00 53 1014.8
20260501151502 52 162 1.7 6.1 0.00 0.00 0.00 54 1014.8
20260501151002 52 88 2.6 6.1 0.00 0.00 0.00 55 1014.8
20260501150506 52 136 2.6 6.1 0.00 0.00 0.00 54 1014.8
20260501150002 52 150 1.7 7.8 0.00 0.00 0.00 56 1014.9
20260501145604 52 191 2.6 7.8 0.00 0.00 0.00 57 1014.9
20260501145100 51 138 2.6 7.8 0.00 0.00 0.00 57 1014.8